• In Belarus
  • List of Countries
  • For 7 days
  • Water Temperature
  • Weather Map
  • Weather Widgets
  • user-avatar
    Login

    Hourly Weather Antwerp

    Today, 19 September, Thursday

    Time Temperature Precipitation Wind Pressure Humidity
    00:00 +10°C° 0 mm 2 mps 771 mmHg 84%
    01:00 +10°C° 0 mm 1 mps 771 mmHg 85%
    02:00 +10°C° 0 mm 1 mps 771 mmHg 85%
    03:00 +10°C° 0 mm 1 mps 771 mmHg 85%
    04:00 +10°C° 0 mm 1 mps 771 mmHg 85%
    05:00 +10°C° 0 mm 1 mps 771 mmHg 85%
    06:00 +10°C° 0 mm 1 mps 772 mmHg 85%
    07:00 +12°C° 0 mm 1 mps 772 mmHg 77%
    08:00 +13°C° 0 mm 1 mps 772 mmHg 70%
    09:00 +15°C° 0 mm 1 mps 772 mmHg 63%
    10:00 +16°C° 0 mm 2 mps 772 mmHg 59%
    11:00 +17°C° 0 mm 2 mps 772 mmHg 56%
    12:00 +18°C° 0 mm 3 mps 772 mmHg 52%
    13:00 +18°C° 0 mm 3 mps 772 mmHg 52%
    14:00 +18°C° 0 mm 3 mps 771 mmHg 52%
    15:00 +18°C° 0 mm 4 mps 771 mmHg 52%
    16:00 +17°C° 0 mm 3 mps 771 mmHg 58%
    17:00 +14°C° 0 mm 3 mps 771 mmHg 64%
    18:00 +14°C° 0 mm 2 mps 771 mmHg 69%
    19:00 +13°C° 0 mm 2 mps 771 mmHg 71%
    20:00 +12°C° 0 mm 2 mps 772 mmHg 73%
    21:00 +10°C° 0 mm 3 mps 772 mmHg 76%
    22:00 +10°C° 0 mm 2 mps 772 mmHg 76%
    23:00 +10°C° 0 mm 2 mps 772 mmHg 77%

    Tomorrow, 20 September, Friday

    Time Temperature Precipitation Wind Pressure Humidity
    00:00 +9°C° 0 mm 2 mps 771 mmHg 77%
    01:00 +9°C° 0 mm 2 mps 771 mmHg 77%
    02:00 +8°C° 0 mm 2 mps 771 mmHg 77%
    03:00 +8°C° 0 mm 2 mps 771 mmHg 76%
    04:00 +8°C° 0 mm 2 mps 771 mmHg 76%
    05:00 +8°C° 0 mm 2 mps 771 mmHg 76%
    06:00 +8°C° 0 mm 2 mps 770 mmHg 76%
    07:00 +10°C° 0 mm 2 mps 770 mmHg 68%
    08:00 +12°C° 0 mm 3 mps 770 mmHg 60%
    09:00 +14°C° 0 mm 3 mps 770 mmHg 52%
    10:00 +15°C° 0 mm 4 mps 770 mmHg 49%
    11:00 +18°C° 0 mm 4 mps 769 mmHg 45%
    12:00 +19°C° 0 mm 4 mps 769 mmHg 41%
    13:00 +19°C° 0 mm 5 mps 768 mmHg 42%
    14:00 +19°C° 0 mm 5 mps 767 mmHg 43%
    15:00 +19°C° 0 mm 5 mps 767 mmHg 44%
    16:00 +17°C° 0 mm 5 mps 766 mmHg 49%
    17:00 +17°C° 0 mm 4 mps 766 mmHg 53%
    18:00 +14°C° 0 mm 4 mps 766 mmHg 58%
    19:00 +14°C° 0 mm 4 mps 766 mmHg 58%
    20:00 +13°C° 0 mm 4 mps 766 mmHg 59%
    21:00 +13°C° 0 mm 4 mps 766 mmHg 60%
    22:00 +12°C° 0 mm 4 mps 765 mmHg 61%
    23:00 +12°C° 0 mm 4 mps 765 mmHg 62%

    Day after tomorrow, 21 September, Saturday

    Time Temperature Precipitation Wind Pressure Humidity
    00:00 +12°C° 0 mm 4 mps 765 mmHg 63%
    01:00 +11°C° 0 mm 4 mps 764 mmHg 63%
    02:00 +11°C° 0 mm 4 mps 764 mmHg 63%
    03:00 +10°C° 0 mm 4 mps 763 mmHg 63%
    04:00 +10°C° 0 mm 4 mps 763 mmHg 63%
    05:00 +10°C° 0 mm 4 mps 762 mmHg 63%
    06:00 +10°C° 0 mm 4 mps 762 mmHg 63%
    07:00 +12°C° 0 mm 4 mps 762 mmHg 57%
    08:00 +14°C° 0 mm 4 mps 762 mmHg 51%
    09:00 +16°C° 0 mm 5 mps 761 mmHg 45%
    10:00 +19°C° 0 mm 5 mps 761 mmHg 44%
    11:00 +21°C° 0 mm 5 mps 761 mmHg 42%
    12:00 +23°C° 0 mm 5 mps 760 mmHg 40%
    13:00 +25°C° 0 mm 4 mps 760 mmHg 42%
    14:00 +26°C° 0 mm 4 mps 759 mmHg 43%
    15:00 +27°C° 0 mm 4 mps 758 mmHg 44%
    16:00 +25°C° 0 mm 4 mps 758 mmHg 50%
    17:00 +22°C° 0 mm 4 mps 758 mmHg 55%
    18:00 +21°C° 0 mm 3 mps 758 mmHg 61%
    19:00 +20°C° 0 mm 4 mps 758 mmHg 61%
    20:00 +19°C° 0 mm 4 mps 758 mmHg 61%
    21:00 +19°C° 0 mm 4 mps 758 mmHg 61%
    22:00 +18°C° 0 mm 4 mps 757 mmHg 59%
    23:00 +18°C° 0 mm 4 mps 757 mmHg 57%

    22 September, Sunday

    Time Temperature Precipitation Wind Pressure Humidity
    00:00 +18°C° 0 mm 4 mps 757 mmHg 55%
    01:00 +18°C° 0 mm 4 mps 756 mmHg 55%
    02:00 +18°C° 0 mm 4 mps 756 mmHg 55%
    03:00 +18°C° 0 mm 4 mps 756 mmHg 56%
    04:00 +18°C° 0 mm 4 mps 756 mmHg 59%
    05:00 +17°C° 0 mm 3 mps 756 mmHg 62%
    06:00 +17°C° 0 mm 3 mps 755 mmHg 65%
    07:00 +19°C° 0 mm 4 mps 755 mmHg 63%
    08:00 +21°C° 0 mm 4 mps 755 mmHg 61%
    09:00 +23°C° 0 mm 4 mps 755 mmHg 59%
    10:00 +23°C° 0 mm 4 mps 755 mmHg 59%
    11:00 +23°C° 0 mm 4 mps 755 mmHg 59%
    12:00 +23°C° 0 mm 4 mps 754 mmHg 59%
    13:00 +23°C° 0 mm 4 mps 754 mmHg 60%
    14:00 +24°C° 0 mm 3 mps 753 mmHg 60%
    15:00 +25°C° 0 mm 3 mps 753 mmHg 61%
    16:00 +24°C° 0.6 mm 3 mps 753 mmHg 68%
    17:00 +21°C° 0.6 mm 3 mps 753 mmHg 75%
    18:00 +20°C° 0.6 mm 2 mps 753 mmHg 82%
    19:00 +19°C° 0.5 mm 3 mps 754 mmHg 85%
    20:00 +19°C° 0.5 mm 4 mps 754 mmHg 87%
    21:00 +17°C° 0.5 mm 5 mps 755 mmHg 90%
    22:00 +16°C° 0.4 mm 5 mps 755 mmHg 89%
    23:00 +15°C° 0.4 mm 5 mps 755 mmHg 89%

    23 September, Monday

    Time Temperature Precipitation Wind Pressure Humidity
    00:00 +15°C° 0.4 mm 6 mps 756 mmHg 88%
    01:00 +15°C° 1.5 mm 5 mps 756 mmHg 90%
    02:00 +14°C° 1.5 mm 4 mps 756 mmHg 91%
    03:00 +14°C° 1.5 mm 3 mps 756 mmHg 92%
    04:00 +14°C° 0 mm 3 mps 757 mmHg 92%
    05:00 +14°C° 0 mm 4 mps 757 mmHg 92%
    06:00 +14°C° 0 mm 4 mps 757 mmHg 91%
    07:00 +15°C° 0 mm 4 mps 757 mmHg 87%
    08:00 +16°C° 0 mm 5 mps 758 mmHg 83%
    09:00 +17°C° 0 mm 5 mps 758 mmHg 79%
    10:00 +17°C° 0.1 mm 5 mps 758 mmHg 74%
    11:00 +19°C° 0.1 mm 5 mps 759 mmHg 70%
    12:00 +20°C° 0.1 mm 6 mps 759 mmHg 66%
    13:00 +20°C° 0 mm 6 mps 759 mmHg 63%
    14:00 +20°C° 0 mm 6 mps 759 mmHg 60%
    15:00 +20°C° 0 mm 6 mps 759 mmHg 57%
    16:00 +17°C° 0 mm 5 mps 759 mmHg 61%
    17:00 +17°C° 0 mm 3 mps 759 mmHg 65%
    18:00 +16°C° 0 mm 2 mps 759 mmHg 69%
    19:00 +15°C° 0 mm 2 mps 760 mmHg 71%
    20:00 +15°C° 0 mm 2 mps 760 mmHg 74%
    21:00 +14°C° 0 mm 2 mps 760 mmHg 76%
    22:00 +14°C° 0 mm 2 mps 760 mmHg 75%
    23:00 +14°C° 0 mm 2 mps 760 mmHg 75%

    24 September, Tuesday

    Time Temperature Precipitation Wind Pressure Humidity
    00:00 +13°C° 0 mm 3 mps 760 mmHg 74%
    01:00 +13°C° 0 mm 3 mps 760 mmHg 72%
    02:00 +14°C° 0 mm 3 mps 759 mmHg 69%
    03:00 +14°C° 0 mm 3 mps 759 mmHg 67%
    04:00 +14°C° 0 mm 4 mps 759 mmHg 70%
    05:00 +14°C° 0 mm 4 mps 759 mmHg 73%
    06:00 +14°C° 0 mm 4 mps 758 mmHg 77%
    07:00 +15°C° 0.1 mm 4 mps 758 mmHg 79%
    08:00 +15°C° 0.1 mm 4 mps 758 mmHg 81%
    09:00 +15°C° 0.1 mm 4 mps 758 mmHg 83%
    10:00 +16°C° 0.1 mm 5 mps 758 mmHg 83%
    11:00 +16°C° 0.1 mm 5 mps 758 mmHg 82%
    12:00 +17°C° 0.1 mm 6 mps 758 mmHg 81%
    13:00 +16°C° 0.4 mm 6 mps 757 mmHg 84%
    14:00 +16°C° 0.4 mm 6 mps 757 mmHg 87%
    15:00 +15°C° 0.4 mm 6 mps 757 mmHg 90%
    16:00 +15°C° 0.2 mm 6 mps 756 mmHg 89%
    17:00 +15°C° 0.2 mm 6 mps 756 mmHg 89%
    18:00 +15°C° 0.2 mm 5 mps 756 mmHg 88%
    19:00 +15°C° 0 mm 5 mps 755 mmHg 85%
    20:00 +15°C° 0 mm 6 mps 755 mmHg 83%
    21:00 +15°C° 0 mm 6 mps 755 mmHg 81%
    22:00 +16°C° 0 mm 6 mps 755 mmHg 81%
    23:00 +16°C° 0 mm 6 mps 754 mmHg 82%
    Show more